Regional Weather Roundup
Issued by NWS Jackson, KY

Home | Current Version | Previous Version | Text Only | Print | Product List | Glossary On
Versions: 1 2 3 4 5 6 7 8 9 10 11 12 13 14 15 16 17 18 19 20 21 22 23 24 25 26 27 28 29 30 31 32 33 34 35 36 37 38 39 40 41 42 43 44 45 46 47 48 49 50
000
ASUS43 KJKL 280310
RWRJKL

EAST KENTUCKY HOURLY WEATHER ROUNDUP
NATIONAL WEATHER SERVICE JACKSON KY
1100 PM EDT THU AUG 27 2015

NOTE: "FAIR" INDICATES FEW OR NO CLOUDS BELOW 12,000 FEET WITH
NO SIGNIFICANT WEATHER AND/OR OBSTRUCTIONS TO VISIBILITY.

* THESE REPORTS ARE NOT UNDER NWS QUALITY CONTROL AND MAY NOT
  REPORT WEATHER SUCH AS PRECIPITATION AND FOG.

KYZ079-080-083-085-087-088-110-112-115-119-120-280400
...EASTERN KENTUCKY...

CITY           SKY/WX    TMP DP  RH WIND       PRES   REMARKS
JACKSON        CLEAR     62  55  77 CALM      30.18S
LONDON         CLEAR     64  54  69 N5        30.17R
SOMERSET*      CLEAR     63  54  72 CALM      30.16F
MONTICELLO*    CLEAR     59  58  96 CALM      30.18R
WILLIAMSBURG*  CLEAR     63  59  88 NE3       30.16
MIDDLESBORO*   PTCLDY    64  61  88 CALM      30.16R
HARLAN APT*      N/A     63  57  82 MISG      30.18R
HAZARD APT*    CLEAR     61  61 100 CALM      30.18S
BLACK MTN*       N/A     57  55  94 E1          N/A
PIKEVILLE APT* CLEAR     63  57  82 N5        30.18S
BIG SANDY*     CLEAR     60  58  91 CALM      30.18S
MOREHEAD APT*  PTCLDY    64  54  68 CALM      30.19S
$$

KYZ035-036-041-042-044-050-067-078-099-280400
...CENTRAL KENTUCKY...

CITY           SKY/WX    TMP DP  RH WIND       PRES   REMARKS
MT STERLING*   CLEAR     55  55 100 CALM      30.19S
FLEMING/MASON* CLEAR     63  55  77 E3        30.19R
DANVILLE*      CLEAR     61  54  77 E5        30.18S
RICHMOND*      CLEAR     61  54  77 CALM      30.16S
LEXINGTON      CLEAR     63  55  75 NE6       30.17R
FRANKFORT      CLEAR     63  56  78 E3        30.15S
$$

KYZ091>093-OHZ055-061-077-WVZ005-015-034-035-042-280400
...SOUTHERN OHIO/WEST VIRGINIA...

CITY           SKY/WX    TMP DP  RH WIND       PRES   REMARKS
COVINGTON      CLEAR     61  56  83 CALM      30.16S
COLUMBUS       CLEAR     63  55  75 CALM      30.17R
DAYTON         PTCLDY    63  57  81 E6        30.17F
WILMINGTON     CLEAR     57  55  93 SE3       30.18R
HUNTINGTON     CLEAR     61  56  83 E3        30.17R
CHARLESTON     CLEAR     61  57  87 CALM      30.17S
PINEVILLE*     MOCLDY    59  59 100 MISG      30.24S
BECKLEY        CLEAR     59  54  83 CALM      30.22S
BLUEFIELD      CLEAR     63  54  72 E3        30.23S
$$

VAZ002-007-008-TNZ017-027-036-066-071-280400
...SOUTHWEST VIRGINIA/EAST TENNESSEE...

CITY           SKY/WX    TMP DP  RH WIND       PRES   REMARKS
WISE*          MOCLDY    63  55  77 CALM      30.23S
JONESVILLE*    MOCLDY    63  61  94 CALM      30.18R
ABINGDON*      CLEAR     66  58  76 CALM      30.18S
BRISTOL        PTCLDY    68  59  73 CALM      30.15R
OAK RIDGE      CLEAR     71  59  65 NE3       30.13R
CROSSVILLE     CLEAR     66  57  72 NE5       30.16S
NASHVILLE      CLEAR     70  56  61 NE6       30.11R
$$

...KEY TO REMARKS...
VSB - VISIBILITY IN MILES
WCI - WIND CHILL INDEX
HX  - HEAT INDEX

$$


USA.gov is the U.S. government's official web portal to all federal, state and local government web resources and services.